N5KR Weather Reports


Display with metric or nautical units.
time (UTC)temp
F
wind
direction
speed
MPH
gust
MPH
rain 1hr
in
rain 24hr
in
rain mn
in
humidity
%
barometer
mb
20260510073506 74 117 2.0 5.0 0.00 0.00 0.00 85 1011.6
20260510073006 74 90 1.0 5.0 0.00 0.00 0.00 85 1011.3
20260510071506 74 152 2.0 13.0 0.00 0.00 0.00 84 1010.5
20260510071006 74 120 6.0 13.0 0.00 0.00 0.00 84 1010.6
20260510070506 74 125 5.0 12.0 0.00 0.00 0.00 84 1010.7
20260510070006 75 145 6.0 13.0 0.00 0.00 0.00 83 1010.8
20260510065006 75 146 6.0 10.0 0.00 0.00 0.00 82 1011.7
20260510064506 75 131 8.0 13.0 0.00 0.00 0.00 82 1012.2
20260510064006 75 52 3.0 9.0 0.00 0.00 0.00 82 1012.6
20260510063506 75 30 4.0 13.0 0.00 0.00 0.00 81 1012.8
20260510063006 75 20 7.0 14.0 0.00 0.00 0.00 81 1012.9
20260510062506 76 4 7.0 17.0 0.00 0.00 0.00 81 1013.0
20260510061506 75 5 3.0 7.0 0.00 0.00 0.00 81 1012.6
20260510061006 75 34 2.0 10.0 0.00 0.00 0.00 81 1012.7
20260510060506 76 29 5.0 13.0 0.00 0.00 0.00 81 1012.4
20260510060006 75 17 3.0 9.0 0.00 0.00 0.00 81 1011.8
20260510054506 76 136 3.0 7.0 0.00 0.00 0.00 79 1010.2
20260510054006 76 104 3.0 7.0 0.00 0.00 0.00 79 1010.1
20260510053506 76 142 3.0 9.0 0.00 0.00 0.00 78 1010.1
20260510053006 76 140 2.0 8.0 0.00 0.00 0.00 77 1010.1
20260510052506 76 144 4.0 10.0 0.00 0.00 0.00 77 1009.9
20260510052005 76 139 7.0 14.0 0.00 0.00 0.00 77 1009.9
20260510051506 76 171 6.0 14.0 0.00 0.00 0.00 76 1009.6
20260510051006 76 149 6.0 9.0 0.00 0.00 0.00 75 1009.8
20260510045006 77 122 5.0 8.0 0.00 0.00 0.00 69 1009.7
20260510044505 77 146 4.0 12.0 0.00 0.00 0.00 68 1009.5
20260510044005 77 158 6.0 13.0 0.00 0.00 0.00 68 1009.3
20260510043506 77 168 4.0 8.0 0.00 0.00 0.00 68 1009.3
20260510043005 77 137 4.0 9.0 0.00 0.00 0.00 68 1009.4
20260510042506 77 158 5.0 8.0 0.00 0.00 0.00 68 1009.4
20260510042006 77 143 5.0 10.0 0.00 0.00 0.00 69 1009.5
20260510040506 77 159 4.0 9.0 0.00 0.00 0.00 69 1009.7
20260510040006 76 141 3.0 9.0 0.00 0.00 0.00 69 1009.7
20260510035505 76 138 3.0 7.0 0.00 0.00 0.00 69 1009.8
20260510035005 77 130 2.0 7.0 0.00 0.00 0.00 69 1009.7
20260510034505 76 136 2.0 8.0 0.00 0.00 0.00 69 1009.8
20260510034005 76 139 5.0 9.0 0.00 0.00 0.00 69 1009.8
20260510033505 76 135 2.0 6.0 0.00 0.00 0.00 69 1009.8
20260510033005 77 137 2.0 6.0 0.00 0.00 0.00 69 1009.9
20260510032505 76 115 1.0 5.0 0.00 0.00 0.00 69 1009.8
20260510032006 76 126 3.0 7.0 0.00 0.00 0.00 69 1009.8
20260510031505 77 128 3.0 7.0 0.00 0.00 0.00 69 1009.9
20260510031006 77 150 2.0 6.0 0.00 0.00 0.00 69 1009.8
20260510030006 77 130 2.0 6.0 0.00 0.00 0.00 68 1009.7
20260510025505 77 139 4.0 8.0 0.00 0.00 0.00 68 1009.8
20260510025005 78 119 3.0 8.0 0.00 0.00 0.00 68 1009.8
20260510024005 78 106 3.0 7.0 0.00 0.00 0.00 67 1009.7
20260510023505 78 119 4.0 8.0 0.00 0.00 0.00 66 1009.7
20260510023006 78 111 5.0 8.0 0.00 0.00 0.00 66 1009.7
20260510022505 78 101 4.0 9.0 0.00 0.00 0.00 66 1009.6
20260510021505 79 133 3.0 8.0 0.00 0.00 0.00 65 1009.5
20260510021005 79 106 6.0 10.0 0.00 0.00 0.00 64 1009.4
20260510020005 79 114 2.0 10.0 0.00 0.00 0.00 63 1009.4
20260510015505 79 123 4.0 8.0 0.00 0.00 0.00 63 1009.3
20260510015005 79 102 2.0 7.0 0.00 0.00 0.00 62 1009.3
20260510014506 80 113 2.0 7.0 0.00 0.00 0.00 62 1009.3
20260510014005 80 117 5.0 8.0 0.00 0.00 0.00 61 1009.2
20260510013505 80 105 4.0 9.0 0.00 0.00 0.00 61 1009.1
20260510013005 80 109 4.0 8.0 0.00 0.00 0.00 60 1009.0
20260510012505 80 117 2.0 8.0 0.00 0.00 0.00 60 1009.0
20260510012005 81 118 3.0 8.0 0.00 0.00 0.00 59 1008.8
20260510011505 81 113 5.0 8.0 0.00 0.00 0.00 58 1008.8
20260510010505 81 102 4.0 9.0 0.00 0.00 0.00 56 1008.7
20260510010005 82 106 5.0 13.0 0.00 0.00 0.00 56 1008.6
20260510005505 82 116 5.0 9.0 0.00 0.00 0.00 56 1008.7
20260510005005 82 118 6.0 9.0 0.00 0.00 0.00 55 1008.6
20260510004505 82 110 5.0 12.0 0.00 0.00 0.00 54 1008.6
20260510004006 82 109 6.0 10.0 0.00 0.00 0.00 54 1008.6
20260510003505 83 106 4.0 10.0 0.00 0.00 0.00 53 1008.5
20260510003005 83 109 5.0 9.0 0.00 0.00 0.00 54 1008.6
20260510002505 83 105 5.0 8.0 0.00 0.00 0.00 55 1008.6
20260510001005 83 101 5.0 8.0 0.00 0.00 0.00 54 1008.7
20260510000505 83 119 4.0 13.0 0.00 0.00 0.00 54 1008.7
20260510000005 83 123 6.0 10.0 0.00 0.00 0.00 54 1008.7
20260509235505 84 117 6.0 9.0 0.00 0.00 0.00 54 1008.7
20260509235004 84 75 5.0 9.0 0.00 0.00 0.00 54 1008.7
20260509234504 84 123 3.0 9.0 0.00 0.00 0.00 54 1008.7
20260509234004 84 79 6.0 12.0 0.00 0.00 0.00 54 1008.7
20260509233505 84 105 5.0 10.0 0.00 0.00 0.00 54 1008.7
20260509233005 84 86 5.0 9.0 0.00 0.00 0.00 54 1008.8
20260509232505 84 96 4.0 9.0 0.00 0.00 0.00 54 1008.7
20260509232004 84 112 7.0 13.0 0.00 0.00 0.00 55 1008.7
20260509231505 84 99 5.0 13.0 0.00 0.00 0.00 56 1008.8
20260509231004 85 78 5.0 12.0 0.00 0.00 0.00 57 1008.7
20260509230005 85 81 4.0 9.0 0.00 0.00 0.00 57 1008.7
20260509225505 84 120 6.0 9.0 0.00 0.00 0.00 58 1008.7
20260509225005 85 110 5.0 8.0 0.00 0.00 0.00 57 1008.6
20260509224005 85 74 2.0 6.0 0.00 0.00 0.00 58 1008.6
20260509223505 85 111 3.0 9.0 0.00 0.00 0.00 58 1008.5
20260509223005 85 101 3.0 10.0 0.00 0.00 0.00 58 1008.6
20260509222504 85 112 5.0 10.0 0.00 0.00 0.00 57 1008.6
20260509222005 85 119 3.0 9.0 0.00 0.00 0.00 59 1008.6
20260509221505 85 99 3.0 12.0 0.00 0.00 0.00 58 1008.6
20260509221005 86 114 5.0 10.0 0.00 0.00 0.00 57 1008.7
20260509220505 86 93 6.0 10.0 0.00 0.00 0.00 57 1008.6
20260509220005 86 81 5.0 9.0 0.00 0.00 0.00 58 1008.6
20260509215504 86 108 3.0 9.0 0.00 0.00 0.00 57 1008.7
20260509215004 86 109 6.0 13.0 0.00 0.00 0.00 58 1008.6
20260509214505 87 106 7.0 13.0 0.00 0.00 0.00 56 1008.6
20260509214005 87 95 5.0 12.0 0.00 0.00 0.00 56 1008.7
20260509213505 86 88 3.0 10.0 0.00 0.00 0.00 57 1008.8
20260509213005 86 97 5.0 10.0 0.00 0.00 0.00 57 1008.9
20260509212504 87 62 5.0 12.0 0.00 0.00 0.00 57 1008.9
20260509212004 87 63 6.0 12.0 0.00 0.00 0.00 57 1009.0
20260509211504 87 68 7.0 13.0 0.00 0.00 0.00 57 1009.0
20260509211005 87 52 4.0 13.0 0.00 0.00 0.00 57 1009.0
20260509210005 87 76 7.0 12.0 0.00 0.00 0.00 58 1009.2
20260509205504 87 79 7.0 12.0 0.00 0.00 0.00 56 1009.3
20260509205005 87 98 7.0 10.0 0.00 0.00 0.00 55 1009.3
20260509204004 87 128 5.0 13.0 0.00 0.00 0.00 57 1009.4
20260509203505 88 147 5.0 8.0 0.00 0.00 0.00 53 1009.4
20260509203005 87 1 3.0 12.0 0.00 0.00 0.00 52 1009.5
20260509202504 88 69 4.0 13.0 0.00 0.00 0.00 52 1009.5
20260509201504 88 357 3.0 8.0 0.00 0.00 0.00 48 1009.7
20260509201004 87 340 5.0 12.0 0.00 0.00 0.00 48 1009.6
20260509200505 86 82 4.0 10.0 0.00 0.00 0.00 49 1009.8
20260509195505 88 89 7.0 10.0 0.00 0.00 0.00 50 1009.8
20260509195004 87 75 6.0 13.0 0.00 0.00 0.00 52 1009.8
20260509194504 87 112 3.0 10.0 0.00 0.00 0.00 53 1009.9
20260509194005 86 108 3.0 9.0 0.00 0.00 0.00 53 1010.0
20260509193504 86 90 3.0 9.0 0.00 0.00 0.00 53 1010.0
20260509193005 87 6 3.0 7.0 0.00 0.00 0.00 54 1010.0
20260509192505 86 316 1.0 6.0 0.00 0.00 0.00 54 1010.0
20260509192005 86 348 3.0 7.0 0.00 0.00 0.00 52 1010.0
20260509191504 86 335 5.0 13.0 0.00 0.00 0.00 56 1010.1
20260509191004 86 7 3.0 8.0 0.00 0.00 0.00 54 1010.1
20260509190005 84 50 2.0 7.0 0.00 0.00 0.00 59 1010.3
20260509185505 85 63 2.0 5.0 0.00 0.00 0.00 59 1010.4
20260509185004 85 348 3.0 12.0 0.00 0.00 0.00 61 1010.4
20260509184504 84 335 3.0 7.0 0.00 0.00 0.00 62 1010.4
20260509184004 85 5 3.0 8.0 0.00 0.00 0.00 61 1010.5
20260509183504 84 48 0.0 7.0 0.00 0.00 0.00 63 1010.6
20260509182505 83 102 3.0 9.0 0.00 0.00 0.00 64 1010.7
20260509182004 83 130 2.0 10.0 0.00 0.00 0.00 67 1010.7
20260509181504 82 69 1.0 8.0 0.00 0.00 0.00 67 1010.8
20260509181004 82 81 6.0 9.0 0.00 0.00 0.00 66 1010.9
20260509180504 81 85 5.0 12.0 0.00 0.00 0.00 68 1011.0
20260509180004 82 40 0.0 6.0 0.00 0.00 0.00 66 1011.0
20260509175504 82 47 1.0 5.0 0.00 0.00 0.00 67 1011.1
20260509175005 82 0 3.0 9.0 0.00 0.00 0.00 67 1011.2
20260509174504 82 347 3.0 9.0 0.00 0.00 0.00 68 1011.3
20260509173504 81 123 4.0 12.0 0.00 0.00 0.00 68 1011.3
20260509173004 81 19 3.0 8.0 0.00 0.00 0.00 68 1011.3
20260509172505 81 356 3.0 10.0 0.00 0.00 0.00 69 1011.4
20260509171504 80 67 5.0 12.0 0.00 0.00 0.00 70 1011.5
20260509171004 80 62 3.0 12.0 0.00 0.00 0.00 71 1011.4
20260509170004 79 312 2.0 10.0 0.00 0.00 0.00 72 1011.5
20260509165004 78 276 2.0 7.0 0.00 0.00 0.00 73 1011.4
20260509164504 78 348 2.0 8.0 0.00 0.00 0.00 73 1011.5
20260509163504 78 355 5.0 12.0 0.00 0.00 0.00 73 1011.6
20260509163004 78 19 6.0 13.0 0.00 0.00 0.00 73 1011.5
20260509162504 78 353 5.0 12.0 0.00 0.00 0.00 74 1011.4
20260509161503 76 6 5.0 14.0 0.00 0.00 0.00 76 1011.4
20260509161004 76 310 6.0 13.0 0.00 0.00 0.00 76 1011.5
20260509160504 77 27 3.0 13.0 0.00 0.00 0.00 76 1011.5
20260509160004 76 21 3.0 7.0 0.00 0.00 0.00 76 1011.5
20260509155504 75 29 5.0 12.0 0.00 0.00 0.00 78 1011.5
20260509155004 75 28 5.0 14.0 0.00 0.00 0.00 78 1011.5
20260509153504 74 348 6.0 13.0 0.00 0.00 0.00 81 1011.6
20260509153004 74 338 6.0 13.0 0.00 0.00 0.00 80 1011.7
20260509152004 74 343 4.0 13.0 0.00 0.00 0.00 81 1011.5
20260509151504 73 21 5.0 12.0 0.00 0.00 0.00 82 1011.7
20260509151004 73 5 2.0 9.0 0.00 0.00 0.00 81 1011.6
20260509150504 73 356 6.0 10.0 0.00 0.00 0.00 81 1011.5
20260509150004 73 349 5.0 10.0 0.00 0.00 0.00 82 1011.5
20260509145504 72 25 4.0 9.0 0.00 0.00 0.00 83 1011.6
20260509145003 72 355 3.0 6.0 0.00 0.00 0.00 83 1011.5
20260509144503 72 335 2.0 7.0 0.00 0.00 0.00 83 1011.6
20260509144004 72 305 4.0 12.0 0.00 0.00 0.00 84 1011.5
20260509143504 72 19 3.0 7.0 0.00 0.00 0.00 84 1011.4
20260509143003 71 344 4.0 10.0 0.00 0.00 0.00 84 1011.3
20260509142004 71 341 4.0 12.0 0.00 0.00 0.00 85 1011.3
20260509141503 71 330 3.0 12.0 0.00 0.00 0.00 85 1011.1
20260509141004 71 341 5.0 13.0 0.00 0.00 0.00 85 1011.1
20260509140004 71 280 2.0 6.0 0.00 0.00 0.00 86 1011.0
20260509135504 71 295 2.0 9.0 0.00 0.00 0.00 86 1011.1
20260509135003 71 352 3.0 12.0 0.00 0.00 0.00 86 1011.0
20260509134504 71 347 3.0 12.0 0.00 0.00 0.00 87 1011.0
20260509134004 71 305 3.0 7.0 0.00 0.00 0.00 88 1010.9
20260509133004 70 332 3.0 12.0 0.00 0.00 0.00 88 1010.7
20260509132503 70 304 3.0 10.0 0.00 0.01 0.00 88 1010.8
20260509132004 70 350 2.0 10.0 0.00 0.01 0.00 89 1010.8
20260509131503 70 341 3.0 9.0 0.00 0.01 0.00 89 1010.8
20260509131004 70 318 3.0 9.0 0.00 0.01 0.00 90 1011.0
20260509130504 70 258 2.0 5.0 0.00 0.01 0.00 90 1010.9
20260509130003 69 277 2.0 5.0 0.00 0.02 0.00 90 1010.8
20260509125004 69 311 0.0 2.0 0.00 0.03 0.00 90 1010.7
20260509124505 70 320 2.0 6.0 0.00 0.03 0.00 90 1010.7
20260509124004 70 284 3.0 10.0 0.00 0.06 0.00 90 1010.8
20260509123004 69 339 2.0 5.0 0.00 0.07 0.00 91 1010.8
20260509122004 69 256 4.0 8.0 0.00 0.07 0.00 92 1010.7
20260509121504 68 249 1.0 5.0 0.00 0.08 0.00 92 1010.7
20260509121004 68 236 2.0 5.0 0.00 0.08 0.00 92 1010.7
20260509120504 68 248 0.0 0.0 0.00 0.08 0.00 92 1010.6
20260509120004 68 248 0.0 0.0 0.00 0.08 0.00 93 1010.6
20260509115504 67 155 0.0 0.0 0.00 0.08 0.00 92 1010.5
20260509115004 67 141 0.0 0.0 0.00 0.08 0.00 92 1010.3
20260509114504 68 141 0.0 0.0 0.00 0.08 0.00 92 1010.1
20260509114004 68 141 0.0 0.0 0.00 0.08 0.00 92 1010.0
20260509113504 68 141 0.0 0.0 0.00 0.08 0.00 91 1010.0
20260509113004 68 141 0.0 0.0 0.00 0.08 0.00 91 1009.8
20260509112504 68 141 0.0 0.0 0.00 0.08 0.00 91 1009.8
20260509112004 68 141 0.0 0.0 0.00 0.08 0.00 91 1009.6
20260509111505 68 141 0.0 0.0 0.00 0.08 0.00 91 1009.6
20260509110504 69 141 0.0 0.0 0.00 0.18 0.00 90 1009.4
20260509110004 69 141 0.0 0.0 0.00 0.24 0.00 90 1009.3
20260509105504 69 141 0.0 0.0 0.00 0.25 0.00 89 1009.4
20260509105004 70 141 0.0 0.0 0.00 0.28 0.00 89 1009.3
20260509104504 70 141 0.0 0.0 0.00 0.28 0.00 89 1009.3
20260509104004 70 141 0.0 3.0 0.00 0.28 0.00 89 1009.3
20260509103504 70 141 0.0 3.0 0.00 0.28 0.00 89 1009.3
20260509102504 70 141 0.0 0.0 0.00 0.28 0.00 89 1009.1
20260509102004 70 141 0.0 1.0 0.00 0.29 0.00 88 1009.1
20260509101504 70 141 1.0 5.0 0.00 0.31 0.00 88 1009.2
20260509101004 70 130 3.0 7.0 0.00 0.43 0.00 88 1009.2
20260509100005 70 146 0.0 0.0 0.00 0.45 0.00 88 1009.1
20260509095504 70 146 0.0 3.0 0.00 0.45 0.00 88 1009.1
20260509093504 71 337 0.0 0.0 0.00 0.45 0.00 88 1009.1
20260509093004 71 337 0.0 0.0 0.00 0.45 0.00 88 1009.1
20260509092503 70 337 0.0 0.0 0.00 0.45 0.00 88 1009.1
20260509091504 70 209 0.0 0.0 0.00 0.45 0.00 88 1008.9
20260509091004 70 209 1.0 5.0 0.00 0.45 0.00 88 1008.5
20260509090504 70 176 0.0 7.0 0.00 0.46 0.00 88 1008.0
20260509090004 70 155 4.0 10.0 0.00 0.46 0.00 88 1007.6
20260509085504 70 119 3.0 10.0 0.00 0.46 0.00 88 1007.6
20260509085004 70 153 5.0 12.0 0.00 0.46 0.00 88 1007.5
20260509084504 70 148 4.0 12.0 0.00 0.46 0.00 88 1007.8
20260509084003 70 160 6.0 13.0 0.00 0.46 0.00 88 1007.9
20260509083503 70 163 9.0 17.0 0.00 0.46 0.00 87 1007.9
20260509082503 70 162 9.0 15.0 0.00 0.46 0.00 87 1008.3
20260509082004 70 165 8.0 14.0 0.00 0.47 0.00 87 1008.5
20260509081503 70 154 7.0 12.0 0.00 0.48 0.00 87 1008.7
20260509081004 71 168 8.0 13.0 0.00 0.48 0.00 87 1009.1
20260509080504 71 173 7.0 13.0 0.00 0.48 0.00 86 1009.3
20260509080007 71 188 5.0 13.0 0.00 0.51 0.00 86 1009.5
20260509075006 71 168 7.0 12.0 0.00 0.66 0.00 86 1009.6
20260509074507 71 182 4.0 8.0 0.00 0.66 0.00 86 1009.9
20260509074007 71 176 3.0 9.0 0.00 0.66 0.00 86 1010.0